CZ-2D DEB, 44609

Orbit data source: Space-Track

CZ-2D DEB, 44609 is space debris in SSO originally from a launch on Mon, 09 Oct 2017 UTC launched from the Jiuquan Satellite Launch Center, China (JSC). Debris objects in space refer to the collection of defunct objects orbiting the Earth. Examples of debris include non-operational satellites, rocket bodies, and fragments generated from explosions, collisions, or faulty payload assembly.

Loading next visibility...
Identifier
44609, 2017-060B
Orbit
SSO
Country
Flag of CNCN / PRC
Related business
Manufacturer
Unknown
Mission
Spacecraft
Bus & Motor
Unknown
Mass
Unknown
Launch date (UTC)
2017-10-09 (8 years ago)
Launch vehicle
Unknown
Launch site
Jiuquan Satellite Launch Center, China (JSC)
Object type
Payload
Rocket body
Debris
Shape & HBR
Unknown shape, 0.1 m
Radar Cross Section
Small (<0.1 m²)

Expand to show TLE details & history
Last TLE update: 18 hours ago

TLE from 18 hours ago
0 CZ-2D DEB
1 44609U 17060B   25298.31110308  .00007972  00000-0  68155-3 0  9993
2 44609  97.5523 319.2000 0033617  23.5400 336.7352 14.97447577429992
Epoch: 2025-10-25T07:27Z
TLE epoch observation values (Epoch: 2025-10-25T07:27:59.306Z)
Latitude
-0.00001°
Longitude
173.25942°
Altitude
556.376 km
Speed
7.595 km/s
True Right ascension
21h 16m 48s
True Declination
0° 00' 00"
Sunlit
Object was in daylight at epoch
Visualization orbit readout
Latitude
Unknown
Longitude
Unknown
Altitude
Unknown
Speed
Unknown
Apparent Right ascension
Unknown
Apparent Declination
Unknown
Sunlit
N/A
Visualization observer readout
Local Sidereal Time
20:55:04
Azimuth
Unknown
Elevation
Unknown
Doppler factor
Unknown
Orbital elements
Apogee altitude
595.152 km
Perigee altitude
548.425 km
Semi-major axis
6,949.925 km
Eccentricity
0.00336
Inclination
97.5523°
RAAN
319.2°
Arg. of periapsis
23.54°
True anomaly
336.58245°
Mean anomaly
336.7352°
Eccentric anomaly
336.65889°
Mean motion
3.74604 °/min
Orbital period
96.1 mins
BSTAR
0.00068155
Loading maneuver chart data...
Computing Atmospheric mass density...
Loading historical data...
Loading historical data...
Loading historical data...
Loading historical data...
Loading historical data...
Loading historical data...
Loading historical data...
Other satellites on launch #60 in the year 2017 (2017-10-09 UTC)

Documentation

Showing up to 5 results
|